Location: Aalen
(48.8330°N, 10.1000°E)
Time: 17:42:01
(UTC+01:00)

UWE-3 - Pass Details

Date: 15 October 2025
Orbit: 548 x 618 km, 97.8° (Epoch: 16 November)

Event Time Altitude Azimuth Distance (km) Brightness Sun altitude
Rises 05:05:33 0° 3° (N) 2,765 ? -25.9°
Reaches altitude 10° 05:07:58 10° 349° (N) 1,874 ? -25.6°
Enters shadow 05:08:03 11° 349° (NNW) 1,842 ? -25.5°
